Weather in Knevichi

Russia / Primorsky Krai     43°23′41″N   132°11′27″E
temp.,
°C
wind,
m/s
gust,
m/s
humid.,
%
clouds,
%
prec.,
mm/h
press.,
hPa
HPBL,
m
20 january, wed
wed2001:00−21ene11737 0.0 103320
04:00−21e116919 0.0 103220
07:00−20ese11650 0.0 103220
10:00−17ese11620 0.0 103155
13:00−12sse24690 0.0 1029285
16:00−9s368029 0.0 1025385
19:00−11sse2392100 0.0 102479
22:00−11se2396100 0.0 102375
21 january, thu
thu2101:00−11se229598 0.0 102227
04:00−11se129784 0.0 102121
07:00−11se119738 0.0 102221
10:00−8nne118743 0.0 102221
13:00−1nnw257242 0.0 1022447
16:00−1nnw127657 0.0 1020264
19:00−6ne1285100 0.0 102121
22:00−7n2288100 0.0 102122
22 january, fri
fri2201:00−10nnw229397 0.0 102147
04:00−11nnw239497 0.0 102192
07:00−12nnw3493100 0.0 1021147
10:00−13nnw358771 0.0 1024191
13:00−9nnw48630 0.0 1025567
16:00−8n38600 0.0 1025680
19:00−13nnw22840 0.0 102737
22:00−14n22820 0.0 102923
23 january, sat
sat2301:00−14n22820 0.0 103029
04:00−15n22840 0.0 103034
07:00−16nnw22850 0.0 103049
10:00−15nnw23780 0.0 1031117
13:00−9nnw24600 0.0 1030397
16:00−8nw22640 0.0 1028283
19:00−12n12900 0.0 102823
22:00−13n11880 0.0 102920
24 january, sun
sun2401:00−13nne11850 0.0 102821
04:00−13nne11820 0.0 102921
07:00−14nne11800 0.0 102720
10:00−11n11700 0.0 102926
13:00−5nw12560 0.0 1028275
16:00−4nnw24670 0.0 1028269
19:00−10nnw34910 0.0 103088
22:00−11nnw34890 0.0 103289